Year,Month,Day,Hour,Minute,Value (Times are PST for insolation in W/m^2)
2006,09,08,00,00,0.00
2006,09,08,00,01,0.00
2006,09,08,00,02,0.00
2006,09,08,00,03,0.00
2006,09,08,00,04,0.00
2006,09,08,00,05,0.00
2006,09,08,00,06,0.00
2006,09,08,00,07,0.00
2006,09,08,00,08,0.00
2006,09,08,00,09,0.00
2006,09,08,00,10,0.00
2006,09,08,00,11,0.00
2006,09,08,00,12,0.00
2006,09,08,00,13,0.00
2006,09,08,00,14,0.00
2006,09,08,00,15,0.00
2006,09,08,00,16,0.00
2006,09,08,00,17,0.00
2006,09,08,00,18,0.00
2006,09,08,00,19,0.00
2006,09,08,00,20,0.00
2006,09,08,00,21,0.00
2006,09,08,00,22,0.00
2006,09,08,00,23,0.00
2006,09,08,00,24,0.00
2006,09,08,00,25,0.00
2006,09,08,00,26,0.00
2006,09,08,00,27,0.00
2006,09,08,00,28,0.00
2006,09,08,00,29,0.00
2006,09,08,00,30,0.00
2006,09,08,00,31,0.00
2006,09,08,00,32,0.00
2006,09,08,00,33,0.00
2006,09,08,00,34,0.00
2006,09,08,00,35,0.00
2006,09,08,00,36,0.00
2006,09,08,00,37,0.00
2006,09,08,00,38,0.00
2006,09,08,00,39,0.00
2006,09,08,00,40,0.00
2006,09,08,00,41,0.00
2006,09,08,00,42,0.00
2006,09,08,00,43,0.00
2006,09,08,00,44,0.00
2006,09,08,00,45,0.00
2006,09,08,00,46,0.00
2006,09,08,00,47,0.00
2006,09,08,00,48,0.00
2006,09,08,00,49,0.00
2006,09,08,00,50,0.00
2006,09,08,00,51,0.00
2006,09,08,00,52,0.00
2006,09,08,00,53,0.00
2006,09,08,00,54,0.00
2006,09,08,00,55,0.00
2006,09,08,00,56,0.00
2006,09,08,00,57,0.00
2006,09,08,00,58,0.00
2006,09,08,00,59,0.00
2006,09,08,01,00,0.00
2006,09,08,01,01,0.00
2006,09,08,01,02,0.00
2006,09,08,01,03,0.00
2006,09,08,01,04,0.00
2006,09,08,01,05,0.00
2006,09,08,01,06,0.00
2006,09,08,01,07,0.00
2006,09,08,01,08,0.00
2006,09,08,01,09,0.00
2006,09,08,01,10,0.00
2006,09,08,01,11,0.00
2006,09,08,01,12,0.00
2006,09,08,01,13,0.00
2006,09,08,01,14,0.00
2006,09,08,01,15,0.00
2006,09,08,01,16,0.00
2006,09,08,01,17,0.00
2006,09,08,01,18,0.00
2006,09,08,01,19,0.00
2006,09,08,01,20,0.00
2006,09,08,01,21,0.00
2006,09,08,01,22,0.00
2006,09,08,01,23,0.00
2006,09,08,01,24,0.00
2006,09,08,01,25,0.00
2006,09,08,01,26,0.00
2006,09,08,01,27,0.00
2006,09,08,01,28,0.00
2006,09,08,01,29,0.00
2006,09,08,01,30,0.00
2006,09,08,01,31,0.00
2006,09,08,01,32,0.00
2006,09,08,01,33,0.00
2006,09,08,01,34,0.00
2006,09,08,01,35,0.00
2006,09,08,01,36,0.00
2006,09,08,01,37,0.00
2006,09,08,01,38,0.00
2006,09,08,01,39,0.00
2006,09,08,01,40,0.00
2006,09,08,01,41,0.00
2006,09,08,01,42,0.00
2006,09,08,01,43,0.00
2006,09,08,01,44,0.00
2006,09,08,01,45,0.00
2006,09,08,01,46,0.00
2006,09,08,01,47,0.00
2006,09,08,01,48,0.00
2006,09,08,01,49,0.00
2006,09,08,01,50,0.00
2006,09,08,01,51,0.00
2006,09,08,01,52,0.00
2006,09,08,01,53,0.00
2006,09,08,01,54,0.00
2006,09,08,01,55,0.00
2006,09,08,01,56,0.00
2006,09,08,01,57,0.00
2006,09,08,01,58,0.00
2006,09,08,01,59,0.00
2006,09,08,02,00,0.00
2006,09,08,02,01,0.00
2006,09,08,02,02,0.00
2006,09,08,02,03,0.00
2006,09,08,02,04,0.00
2006,09,08,02,05,0.00
2006,09,08,02,06,0.00
2006,09,08,02,07,0.00
2006,09,08,02,08,0.00
2006,09,08,02,09,0.00
2006,09,08,02,10,0.00
2006,09,08,02,11,0.00
2006,09,08,02,12,0.00
2006,09,08,02,13,0.00
2006,09,08,02,14,0.00
2006,09,08,02,15,0.00
2006,09,08,02,16,0.00
2006,09,08,02,17,0.00
2006,09,08,02,18,0.00
2006,09,08,02,19,0.00
2006,09,08,02,20,0.00
2006,09,08,02,21,0.00
2006,09,08,02,22,0.00
2006,09,08,02,23,0.00
2006,09,08,02,24,0.00
2006,09,08,02,25,0.00
2006,09,08,02,26,0.00
2006,09,08,02,27,0.00
2006,09,08,02,28,0.00
2006,09,08,02,29,0.00
2006,09,08,02,30,0.00
2006,09,08,02,31,0.00
2006,09,08,02,32,0.00
2006,09,08,02,33,0.00
2006,09,08,02,34,0.00
2006,09,08,02,35,0.00
2006,09,08,02,36,0.00
2006,09,08,02,37,0.00
2006,09,08,02,38,0.00
2006,09,08,02,39,0.00
2006,09,08,02,40,0.00
2006,09,08,02,41,0.00
2006,09,08,02,42,0.00
2006,09,08,02,43,0.00
2006,09,08,02,44,0.00
2006,09,08,02,45,0.00
2006,09,08,02,46,0.00
2006,09,08,02,47,0.00
2006,09,08,02,48,0.00
2006,09,08,02,49,0.00
2006,09,08,02,50,0.00
2006,09,08,02,51,0.00
2006,09,08,02,52,0.00
2006,09,08,02,53,0.00
2006,09,08,02,54,0.00
2006,09,08,02,55,0.00
2006,09,08,02,56,0.00
2006,09,08,02,57,0.00
2006,09,08,02,58,0.00
2006,09,08,02,59,0.00
2006,09,08,03,00,0.00
2006,09,08,03,01,0.00
2006,09,08,03,02,0.00
2006,09,08,03,03,0.00
2006,09,08,03,04,0.00
2006,09,08,03,05,0.00
2006,09,08,03,06,0.00
2006,09,08,03,07,0.00
2006,09,08,03,08,0.00
2006,09,08,03,09,0.00
2006,09,08,03,10,0.00
2006,09,08,03,11,0.00
2006,09,08,03,12,0.00
2006,09,08,03,13,0.00
2006,09,08,03,14,0.00
2006,09,08,03,15,0.00
2006,09,08,03,16,0.00
2006,09,08,03,17,0.00
2006,09,08,03,18,0.00
2006,09,08,03,19,0.00
2006,09,08,03,20,0.00
2006,09,08,03,21,0.00
2006,09,08,03,22,0.00
2006,09,08,03,23,0.00
2006,09,08,03,24,0.00
2006,09,08,03,25,0.00
2006,09,08,03,26,0.00
2006,09,08,03,27,0.00
2006,09,08,03,28,0.00
2006,09,08,03,29,0.00
2006,09,08,03,30,0.00
2006,09,08,03,31,0.00
2006,09,08,03,32,0.00
2006,09,08,03,33,0.00
2006,09,08,03,34,0.00
2006,09,08,03,35,0.00
2006,09,08,03,36,0.00
2006,09,08,03,37,0.00
2006,09,08,03,38,0.00
2006,09,08,03,39,0.00
2006,09,08,03,40,0.00
2006,09,08,03,41,0.00
2006,09,08,03,42,0.00
2006,09,08,03,43,0.00
2006,09,08,03,44,0.00
2006,09,08,03,45,0.00
2006,09,08,03,46,0.00
2006,09,08,03,47,0.00
2006,09,08,03,48,0.00
2006,09,08,03,49,0.00
2006,09,08,03,50,0.00
2006,09,08,03,51,0.00
2006,09,08,03,52,0.00
2006,09,08,03,53,0.00
2006,09,08,03,54,0.00
2006,09,08,03,55,0.00
2006,09,08,03,56,0.00
2006,09,08,03,57,0.00
2006,09,08,03,58,0.00
2006,09,08,03,59,0.00
2006,09,08,04,00,0.00
2006,09,08,04,01,0.00
2006,09,08,04,02,0.00
2006,09,08,04,03,0.00
2006,09,08,04,04,0.00
2006,09,08,04,05,0.00
2006,09,08,04,06,0.00
2006,09,08,04,07,0.00
2006,09,08,04,08,0.00
2006,09,08,04,09,0.00
2006,09,08,04,10,0.00
2006,09,08,04,11,0.00
2006,09,08,04,12,0.00
2006,09,08,04,13,0.00
2006,09,08,04,14,0.00
2006,09,08,04,15,0.00
2006,09,08,04,16,0.00
2006,09,08,04,17,0.00
2006,09,08,04,18,0.00
2006,09,08,04,19,0.00
2006,09,08,04,20,0.00
2006,09,08,04,21,0.00
2006,09,08,04,22,0.00
2006,09,08,04,23,0.00
2006,09,08,04,24,0.00
2006,09,08,04,25,0.00
2006,09,08,04,26,0.00
2006,09,08,04,27,0.00
2006,09,08,04,28,0.00
2006,09,08,04,29,0.00
2006,09,08,04,30,0.00
2006,09,08,04,31,0.00
2006,09,08,04,32,0.00
2006,09,08,04,33,0.00
2006,09,08,04,34,0.00
2006,09,08,04,35,0.00
2006,09,08,04,36,0.00
2006,09,08,04,37,0.00
2006,09,08,04,38,0.00
2006,09,08,04,39,0.00
2006,09,08,04,40,0.00
2006,09,08,04,41,0.00
2006,09,08,04,42,0.00
2006,09,08,04,43,0.00
2006,09,08,04,44,0.00
2006,09,08,04,45,0.00
2006,09,08,04,46,0.00
2006,09,08,04,47,0.00
2006,09,08,04,48,0.00
2006,09,08,04,49,0.00
2006,09,08,04,50,0.00
2006,09,08,04,51,0.00
2006,09,08,04,52,0.00
2006,09,08,04,53,0.00
2006,09,08,04,54,0.00
2006,09,08,04,55,0.00
2006,09,08,04,56,0.00
2006,09,08,04,57,0.00
2006,09,08,04,58,0.00
2006,09,08,04,59,0.00
2006,09,08,05,00,0.00
2006,09,08,05,01,0.00
2006,09,08,05,02,0.00
2006,09,08,05,03,0.00
2006,09,08,05,04,0.00
2006,09,08,05,05,0.00
2006,09,08,05,06,0.00
2006,09,08,05,07,0.00
2006,09,08,05,08,0.00
2006,09,08,05,09,0.00
2006,09,08,05,10,0.00
2006,09,08,05,11,0.00
2006,09,08,05,12,0.00
2006,09,08,05,13,0.00
2006,09,08,05,14,0.00
2006,09,08,05,15,0.00
2006,09,08,05,16,0.00
2006,09,08,05,17,0.00
2006,09,08,05,18,0.00
2006,09,08,05,19,0.00
2006,09,08,05,20,0.00
2006,09,08,05,21,0.00
2006,09,08,05,22,0.00
2006,09,08,05,23,0.00
2006,09,08,05,24,0.00
2006,09,08,05,25,0.00
2006,09,08,05,26,0.00
2006,09,08,05,27,0.00
2006,09,08,05,28,0.00
2006,09,08,05,29,0.00
2006,09,08,05,30,0.00
2006,09,08,05,31,0.00
2006,09,08,05,32,0.00
2006,09,08,05,33,0.00
2006,09,08,05,34,0.00
2006,09,08,05,35,0.00
2006,09,08,05,36,0.00
2006,09,08,05,37,0.00
2006,09,08,05,38,0.00
2006,09,08,05,39,0.00
2006,09,08,05,40,0.00
2006,09,08,05,41,0.00
2006,09,08,05,42,0.00
2006,09,08,05,43,0.00
2006,09,08,05,44,0.00
2006,09,08,05,45,0.00
2006,09,08,05,46,0.00
2006,09,08,05,47,0.00
2006,09,08,05,48,0.00
2006,09,08,05,49,0.00
2006,09,08,05,50,0.00
2006,09,08,05,51,0.00
2006,09,08,05,52,0.00
2006,09,08,05,53,0.00
2006,09,08,05,54,0.00
2006,09,08,05,55,0.00
2006,09,08,05,56,0.00
2006,09,08,05,57,0.00
2006,09,08,05,58,0.00
2006,09,08,05,59,0.00
2006,09,08,06,00,0.00
2006,09,08,06,01,0.00
2006,09,08,06,02,0.00
2006,09,08,06,03,0.00
2006,09,08,06,04,0.00
2006,09,08,06,05,0.00
2006,09,08,06,06,0.00
2006,09,08,06,07,0.00
2006,09,08,06,08,0.00
2006,09,08,06,09,0.00
2006,09,08,06,10,0.00
2006,09,08,06,11,0.00
2006,09,08,06,12,0.00
2006,09,08,06,13,0.00
2006,09,08,06,14,0.00
2006,09,08,06,15,0.00
2006,09,08,06,16,0.00
2006,09,08,06,17,0.00
2006,09,08,06,18,0.00
2006,09,08,06,19,0.00
2006,09,08,06,20,0.00
2006,09,08,06,21,0.00
2006,09,08,06,22,0.00
2006,09,08,06,23,0.00
2006,09,08,06,24,0.00
2006,09,08,06,25,0.00
2006,09,08,06,26,0.00
2006,09,08,06,27,0.00
2006,09,08,06,28,0.00
2006,09,08,06,29,0.00
2006,09,08,06,30,0.00
2006,09,08,06,31,0.00
2006,09,08,06,32,0.00
2006,09,08,06,33,0.00
2006,09,08,06,34,0.00
2006,09,08,06,35,0.00
2006,09,08,06,36,0.00
2006,09,08,06,37,0.00
2006,09,08,06,38,0.00
2006,09,08,06,39,0.00
2006,09,08,06,40,0.00
2006,09,08,06,41,0.00
2006,09,08,06,42,0.00
2006,09,08,06,43,4.20
2006,09,08,06,44,5.00
2006,09,08,06,45,5.00
2006,09,08,06,46,5.00
2006,09,08,06,47,6.10
2006,09,08,06,48,7.00
2006,09,08,06,49,7.00
2006,09,08,06,50,7.00
2006,09,08,06,51,7.50
2006,09,08,06,52,9.00
2006,09,08,06,53,9.00
2006,09,08,06,54,9.00
2006,09,08,06,55,10.70
2006,09,08,06,56,11.00
2006,09,08,06,57,11.30
2006,09,08,06,58,12.00
2006,09,08,06,59,12.00
2006,09,08,07,00,12.00
2006,09,08,07,01,12.00
2006,09,08,07,02,14.00
2006,09,08,07,03,14.00
2006,09,08,07,04,14.00
2006,09,08,07,05,15.20
2006,09,08,07,06,16.00
2006,09,08,07,07,16.00
2006,09,08,07,08,16.00
2006,09,08,07,09,16.70
2006,09,08,07,10,18.00
2006,09,08,07,11,18.00
2006,09,08,07,12,18.00
2006,09,08,07,13,18.00
2006,09,08,07,14,18.20
2006,09,08,07,15,19.00
2006,09,08,07,16,19.00
2006,09,08,07,17,19.00
2006,09,08,07,18,20.60
2006,09,08,07,19,21.00
2006,09,08,07,20,21.00
2006,09,08,07,21,22.50
2006,09,08,07,22,32.00
2006,09,08,07,23,57.20
2006,09,08,07,24,78.20
2006,09,08,07,25,86.40
2006,09,08,07,26,90.20
2006,09,08,07,27,92.70
2006,09,08,07,28,96.10
2006,09,08,07,29,97.00
2006,09,08,07,30,101.20
2006,09,08,07,31,103.90
2006,09,08,07,32,105.30
2006,09,08,07,33,110.60
2006,09,08,07,34,113.00
2006,09,08,07,35,113.00
2006,09,08,07,36,106.20
2006,09,08,07,37,84.20
2006,09,08,07,38,63.00
2006,09,08,07,39,59.80
2006,09,08,07,40,56.00
2006,09,08,07,41,38.30
2006,09,08,07,42,30.30
2006,09,08,07,43,32.00
2006,09,08,07,44,32.30
2006,09,08,07,45,33.00
2006,09,08,07,46,33.00
2006,09,08,07,47,32.30
2006,09,08,07,48,30.30
2006,09,08,07,49,32.20
2006,09,08,07,50,33.00
2006,09,08,07,51,33.00
2006,09,08,07,52,33.00
2006,09,08,07,53,32.20
2006,09,08,07,54,32.10
2006,09,08,07,55,34.40
2006,09,08,07,56,41.50
2006,09,08,07,57,52.00
2006,09,08,07,58,92.20
2006,09,08,07,59,148.60
2006,09,08,08,00,160.60
2006,09,08,08,01,183.40
2006,09,08,08,02,185.40
2006,09,08,08,03,186.00
2006,09,08,08,04,189.90
2006,09,08,08,05,192.80
2006,09,08,08,06,195.10
2006,09,08,08,07,197.50
2006,09,08,08,08,199.40
2006,09,08,08,09,200.00
2006,09,08,08,10,204.10
2006,09,08,08,11,206.90
2006,09,08,08,12,209.40
2006,09,08,08,13,213.30
2006,09,08,08,14,214.00
2006,09,08,08,15,215.10
2006,09,08,08,16,217.40
2006,09,08,08,17,219.60
2006,09,08,08,18,221.30
2006,09,08,08,19,224.10
2006,09,08,08,20,227.90
2006,09,08,08,21,229.00
2006,09,08,08,22,229.00
2006,09,08,08,23,235.30
2006,09,08,08,24,236.40
2006,09,08,08,25,239.60
2006,09,08,08,26,242.40
2006,09,08,08,27,244.00
2006,09,08,08,28,247.00
2006,09,08,08,29,249.90
2006,09,08,08,30,253.00
2006,09,08,08,31,254.30
2006,09,08,08,32,257.50
2006,09,08,08,33,259.20
2006,09,08,08,34,263.20
2006,09,08,08,35,265.00
2006,09,08,08,36,267.40
2006,09,08,08,37,269.70
2006,09,08,08,38,272.40
2006,09,08,08,39,275.30
2006,09,08,08,40,276.00
2006,09,08,08,41,277.90
2006,09,08,08,42,279.40
2006,09,08,08,43,281.80
2006,09,08,08,44,284.10
2006,09,08,08,45,286.30
2006,09,08,08,46,287.80
2006,09,08,08,47,288.60
2006,09,08,08,48,294.20
2006,09,08,08,49,295.80
2006,09,08,08,50,298.10
2006,09,08,08,51,301.10
2006,09,08,08,52,303.70
2006,09,08,08,53,306.20
2006,09,08,08,54,308.20
2006,09,08,08,55,309.80
2006,09,08,08,56,313.20
2006,09,08,08,57,317.10
2006,09,08,08,58,319.70
2006,09,08,08,59,322.10
2006,09,08,09,00,324.10
2006,09,08,09,01,327.80
2006,09,08,09,02,330.60
2006,09,08,09,03,332.00
2006,09,08,09,04,337.40
2006,09,08,09,05,339.30
2006,09,08,09,06,342.20
2006,09,08,09,07,345.40
2006,09,08,09,08,348.40
2006,09,08,09,09,351.40
2006,09,08,09,10,353.10
2006,09,08,09,11,357.50
2006,09,08,09,12,360.00
2006,09,08,09,13,361.90
2006,09,08,09,14,364.00
2006,09,08,09,15,366.40
2006,09,08,09,16,369.10
2006,09,08,09,17,373.20
2006,09,08,09,18,374.60
2006,09,08,09,19,377.80
2006,09,08,09,20,380.60
2006,09,08,09,21,382.60
2006,09,08,09,22,384.90
2006,09,08,09,23,387.20
2006,09,08,09,24,389.50
2006,09,08,09,25,393.00
2006,09,08,09,26,395.40
2006,09,08,09,27,398.40
2006,09,08,09,28,401.20
2006,09,08,09,29,404.00
2006,09,08,09,30,405.50
2006,09,08,09,31,409.00
2006,09,08,09,32,410.60
2006,09,08,09,33,412.60
2006,09,08,09,34,415.00
2006,09,08,09,35,416.50
2006,09,08,09,36,420.80
2006,09,08,09,37,423.10
2006,09,08,09,38,424.70
2006,09,08,09,39,426.80
2006,09,08,09,40,429.50
2006,09,08,09,41,432.60
2006,09,08,09,42,434.80
2006,09,08,09,43,437.60
2006,09,08,09,44,440.50
2006,09,08,09,45,442.80
2006,09,08,09,46,446.00
2006,09,08,09,47,446.00
2006,09,08,09,48,448.70
2006,09,08,09,49,453.20
2006,09,08,09,50,454.70
2006,09,08,09,51,456.80
2006,09,08,09,52,459.60
2006,09,08,09,53,462.00
2006,09,08,09,54,462.90
2006,09,08,09,55,465.30
2006,09,08,09,56,467.60
2006,09,08,09,57,469.30
2006,09,08,09,58,473.40
2006,09,08,09,59,475.30
2006,09,08,10,00,476.90
2006,09,08,10,01,479.30
2006,09,08,10,02,481.60
2006,09,08,10,03,483.30
2006,09,08,10,04,487.40
2006,09,08,10,05,490.00
2006,09,08,10,06,492.00
2006,09,08,10,07,494.50
2006,09,08,10,08,496.00
2006,09,08,10,09,497.10
2006,09,08,10,10,499.40
2006,09,08,10,11,501.70
2006,09,08,10,12,503.50
2006,09,08,10,13,504.00
2006,09,08,10,14,504.00
2006,09,08,10,15,507.80
2006,09,08,10,16,509.10
2006,09,08,10,17,513.20
2006,09,08,10,18,515.00
2006,09,08,10,19,516.40
2006,09,08,10,20,518.70
2006,09,08,10,21,520.30
2006,09,08,10,22,522.60
2006,09,08,10,23,524.90
2006,09,08,10,24,527.70
2006,09,08,10,25,530.40
2006,09,08,10,26,531.00
2006,09,08,10,27,534.60
2006,09,08,10,28,538.60
2006,09,08,10,29,540.50
2006,09,08,10,30,542.30
2006,09,08,10,31,544.50
2006,09,08,10,32,547.70
2006,09,08,10,33,550.30
2006,09,08,10,34,552.00
2006,09,08,10,35,552.90
2006,09,08,10,36,555.80
2006,09,08,10,37,558.50
2006,09,08,10,38,559.20
2006,09,08,10,39,561.60
2006,09,08,10,40,564.00
2006,09,08,10,41,566.10
2006,09,08,10,42,568.00
2006,09,08,10,43,569.60
2006,09,08,10,44,571.20
2006,09,08,10,45,573.40
2006,09,08,10,46,575.80
2006,09,08,10,47,578.60
2006,09,08,10,48,581.30
2006,09,08,10,49,583.60
2006,09,08,10,50,585.10
2006,09,08,10,51,587.50
2006,09,08,10,52,589.00
2006,09,08,10,53,590.60
2006,09,08,10,54,594.60
2006,09,08,10,55,596.00
2006,09,08,10,56,598.00
2006,09,08,10,57,599.00
2006,09,08,10,58,599.80
2006,09,08,10,59,601.00
2006,09,08,11,00,603.80
2006,09,08,11,01,605.90
2006,09,08,11,02,608.20
2006,09,08,11,03,610.00
2006,09,08,11,04,610.80
2006,09,08,11,05,612.00
2006,09,08,11,06,614.10
2006,09,08,11,07,615.10
2006,09,08,11,08,617.00
2006,09,08,11,09,617.60
2006,09,08,11,10,619.90
2006,09,08,11,11,621.00
2006,09,08,11,12,621.80
2006,09,08,11,13,622.10
2006,09,08,11,14,624.80
2006,09,08,11,15,628.30
2006,09,08,11,16,629.90
2006,09,08,11,17,631.00
2006,09,08,11,18,631.00
2006,09,08,11,19,632.90
2006,09,08,11,20,633.40
2006,09,08,11,21,636.00
2006,09,08,11,22,637.00
2006,09,08,11,23,636.00
2006,09,08,11,24,639.00
2006,09,08,11,25,640.00
2006,09,08,11,26,640.50
2006,09,08,11,27,642.40
2006,09,08,11,28,643.00
2006,09,08,11,29,644.40
2006,09,08,11,30,646.60
2006,09,08,11,31,647.20
2006,09,08,11,32,649.00
2006,09,08,11,33,649.30
2006,09,08,11,34,650.00
2006,09,08,11,35,651.40
2006,09,08,11,36,652.00
2006,09,08,11,37,652.60
2006,09,08,11,38,656.30
2006,09,08,11,39,657.00
2006,09,08,11,40,657.00
2006,09,08,11,41,658.40
2006,09,08,11,42,662.40
2006,09,08,11,43,663.00
2006,09,08,11,44,663.30
2006,09,08,11,45,664.00
2006,09,08,11,46,664.00
2006,09,08,11,47,666.90
2006,09,08,11,48,668.00
2006,09,08,11,49,670.00
2006,09,08,11,50,670.30
2006,09,08,11,51,671.80
2006,09,08,11,52,673.00
2006,09,08,11,53,673.00
2006,09,08,11,54,676.30
2006,09,08,11,55,675.00
2006,09,08,11,56,676.20
2006,09,08,11,57,678.00
2006,09,08,11,58,678.90
2006,09,08,11,59,680.00
2006,09,08,12,00,679.20
2006,09,08,12,01,681.60
2006,09,08,12,02,680.60
2006,09,08,12,03,682.00
2006,09,08,12,04,683.30
2006,09,08,12,05,684.00
2006,09,08,12,06,684.20
2006,09,08,12,07,687.00
2006,09,08,12,08,687.00
2006,09,08,12,09,688.00
2006,09,08,12,10,689.00
2006,09,08,12,11,689.00
2006,09,08,12,12,689.20
2006,09,08,12,13,691.50
2006,09,08,12,14,693.00
2006,09,08,12,15,693.00
2006,09,08,12,16,693.00
2006,09,08,12,17,693.00
2006,09,08,12,18,694.00
2006,09,08,12,19,695.00
2006,09,08,12,20,696.40
2006,09,08,12,21,696.30
2006,09,08,12,22,698.00
2006,09,08,12,23,698.00
2006,09,08,12,24,698.00
2006,09,08,12,25,698.50
2006,09,08,12,26,700.40
2006,09,08,12,27,702.20
2006,09,08,12,28,703.00
2006,09,08,12,29,704.70
2006,09,08,12,30,705.00
2006,09,08,12,31,705.00
2006,09,08,12,32,705.00
2006,09,08,12,33,706.20
2006,09,08,12,34,707.00
2006,09,08,12,35,707.00
2006,09,08,12,36,707.00
2006,09,08,12,37,707.30
2006,09,08,12,38,707.50
2006,09,08,12,39,707.60
2006,09,08,12,40,708.00
2006,09,08,12,41,708.00
2006,09,08,12,42,708.00
2006,09,08,12,43,708.70
2006,09,08,12,44,710.00
2006,09,08,12,45,711.20
2006,09,08,12,46,712.00
2006,09,08,12,47,710.10
2006,09,08,12,48,710.40
2006,09,08,12,49,712.00
2006,09,08,12,50,712.00
2006,09,08,12,51,710.60
2006,09,08,12,52,711.60
2006,09,08,12,53,712.00
2006,09,08,12,54,712.00
2006,09,08,12,55,711.30
2006,09,08,12,56,711.10
2006,09,08,12,57,712.00
2006,09,08,12,58,712.00
2006,09,08,12,59,712.00
2006,09,08,13,00,712.50
2006,09,08,13,01,712.30
2006,09,08,13,02,710.00
2006,09,08,13,03,710.00
2006,09,08,13,04,711.70
2006,09,08,13,05,711.70
2006,09,08,13,06,710.00
2006,09,08,13,07,710.00
2006,09,08,13,08,711.20
2006,09,08,13,09,710.50
2006,09,08,13,10,711.70
2006,09,08,13,11,712.00
2006,09,08,13,12,712.00
2006,09,08,13,13,712.00
2006,09,08,13,14,712.00
2006,09,08,13,15,710.50
2006,09,08,13,16,710.00
2006,09,08,13,17,713.20
2006,09,08,13,18,710.00
2006,09,08,13,19,710.00
2006,09,08,13,20,710.00
2006,09,08,13,21,710.00
2006,09,08,13,22,710.00
2006,09,08,13,23,709.60
2006,09,08,13,24,708.00
2006,09,08,13,25,710.10
2006,09,08,13,26,710.70
2006,09,08,13,27,710.00
2006,09,08,13,28,708.40
2006,09,08,13,29,710.50
2006,09,08,13,30,712.00
2006,09,08,13,31,712.00
2006,09,08,13,32,709.40
2006,09,08,13,33,709.60
2006,09,08,13,34,708.10
2006,09,08,13,35,708.00
2006,09,08,13,36,708.00
2006,09,08,13,37,708.00
2006,09,08,13,38,707.30
2006,09,08,13,39,705.40
2006,09,08,13,40,707.70
2006,09,08,13,41,707.00
2006,09,08,13,42,707.00
2006,09,08,13,43,705.90
2006,09,08,13,44,705.00
2006,09,08,13,45,705.00
2006,09,08,13,46,703.40
2006,09,08,13,47,704.40
2006,09,08,13,48,703.00
2006,09,08,13,49,701.80
2006,09,08,13,50,702.50
2006,09,08,13,51,701.30
2006,09,08,13,52,700.80
2006,09,08,13,53,699.40
2006,09,08,13,54,698.00
2006,09,08,13,55,699.20
2006,09,08,13,56,698.40
2006,09,08,13,57,698.00
2006,09,08,13,58,698.00
2006,09,08,13,59,698.60
2006,09,08,14,00,699.00
2006,09,08,14,01,699.20
2006,09,08,14,02,698.40
2006,09,08,14,03,699.80
2006,09,08,14,04,698.00
2006,09,08,14,05,698.00
2006,09,08,14,06,698.00
2006,09,08,14,07,696.70
2006,09,08,14,08,696.00
2006,09,08,14,09,695.80
2006,09,08,14,10,692.50
2006,09,08,14,11,691.70
2006,09,08,14,12,692.00
2006,09,08,14,13,688.30
2006,09,08,14,14,687.00
2006,09,08,14,15,686.70
2006,09,08,14,16,684.00
2006,09,08,14,17,684.00
2006,09,08,14,18,684.00
2006,09,08,14,19,681.20
2006,09,08,14,20,681.70
2006,09,08,14,21,680.00
2006,09,08,14,22,679.00
2006,09,08,14,23,676.60
2006,09,08,14,24,673.00
2006,09,08,14,25,673.00
2006,09,08,14,26,671.30
2006,09,08,14,27,670.80
2006,09,08,14,28,670.00
2006,09,08,14,29,669.10
2006,09,08,14,30,665.70
2006,09,08,14,31,666.80
2006,09,08,14,32,666.20
2006,09,08,14,33,664.00
2006,09,08,14,34,664.00
2006,09,08,14,35,662.70
2006,09,08,14,36,661.00
2006,09,08,14,37,659.50
2006,09,08,14,38,658.90
2006,09,08,14,39,656.50
2006,09,08,14,40,653.40
2006,09,08,14,41,651.10
2006,09,08,14,42,649.40
2006,09,08,14,43,649.00
2006,09,08,14,44,647.30
2006,09,08,14,45,649.40
2006,09,08,14,46,647.00
2006,09,08,14,47,647.00
2006,09,08,14,48,647.00
2006,09,08,14,49,645.50
2006,09,08,14,50,642.20
2006,09,08,14,51,642.80
2006,09,08,14,52,640.40
2006,09,08,14,53,639.10
2006,09,08,14,54,638.70
2006,09,08,14,55,636.30
2006,09,08,14,56,633.30
2006,09,08,14,57,635.00
2006,09,08,14,58,635.00
2006,09,08,14,59,631.80
2006,09,08,15,00,630.40
2006,09,08,15,01,627.00
2006,09,08,15,02,625.80
2006,09,08,15,03,623.50
2006,09,08,15,04,622.00
2006,09,08,15,05,615.40
2006,09,08,15,06,614.90
2006,09,08,15,07,615.30
2006,09,08,15,08,614.50
2006,09,08,15,09,612.90
2006,09,08,15,10,615.00
2006,09,08,15,11,613.90
2006,09,08,15,12,610.80
2006,09,08,15,13,611.80
2006,09,08,15,14,609.60
2006,09,08,15,15,607.40
2006,09,08,15,16,604.70
2006,09,08,15,17,603.00
2006,09,08,15,18,601.50
2006,09,08,15,19,600.90
2006,09,08,15,20,599.00
2006,09,08,15,21,599.00
2006,09,08,15,22,596.60
2006,09,08,15,23,592.70
2006,09,08,15,24,591.20
2006,09,08,15,25,590.60
2006,09,08,15,26,585.90
2006,09,08,15,27,577.10
2006,09,08,15,28,572.70
2006,09,08,15,29,577.60
2006,09,08,15,30,570.50
2006,09,08,15,31,545.30
2006,09,08,15,32,532.80
2006,09,08,15,33,518.30
2006,09,08,15,34,422.50
2006,09,08,15,35,396.70
2006,09,08,15,36,420.00
2006,09,08,15,37,426.90
2006,09,08,15,38,427.00
2006,09,08,15,39,386.20
2006,09,08,15,40,323.40
2006,09,08,15,41,322.00
2006,09,08,15,42,322.00
2006,09,08,15,43,306.90
2006,09,08,15,44,211.50
2006,09,08,15,45,188.20
2006,09,08,15,46,200.50
2006,09,08,15,47,235.40
2006,09,08,15,48,248.00
2006,09,08,15,49,407.00
2006,09,08,15,50,359.80
2006,09,08,15,51,328.00
2006,09,08,15,52,334.00
2006,09,08,15,53,453.00
2006,09,08,15,54,473.00
2006,09,08,15,55,469.10
2006,09,08,15,56,512.00
2006,09,08,15,57,450.90
2006,09,08,15,58,381.20
2006,09,08,15,59,380.00
2006,09,08,16,00,380.00
2006,09,08,16,01,398.80
2006,09,08,16,02,493.30
2006,09,08,16,03,457.00
2006,09,08,16,04,400.50
2006,09,08,16,05,330.00
2006,09,08,16,06,371.20
2006,09,08,16,07,342.40
2006,09,08,16,08,355.00
2006,09,08,16,09,355.00
2006,09,08,16,10,375.80
2006,09,08,16,11,338.10
2006,09,08,16,12,360.60
2006,09,08,16,13,299.50
2006,09,08,16,14,302.40
2006,09,08,16,15,290.00
2006,09,08,16,16,296.20
2006,09,08,16,17,284.40
2006,09,08,16,18,335.90
2006,09,08,16,19,369.00
2006,09,08,16,20,341.80
2006,09,08,16,21,317.30
2006,09,08,16,22,288.50
2006,09,08,16,23,258.30
2006,09,08,16,24,276.30
2006,09,08,16,25,241.50
2006,09,08,16,26,239.40
2006,09,08,16,27,289.60
2006,09,08,16,28,273.10
2006,09,08,16,29,265.50
2006,09,08,16,30,234.60
2006,09,08,16,31,239.90
2006,09,08,16,32,254.00
2006,09,08,16,33,230.00
2006,09,08,16,34,246.30
2006,09,08,16,35,258.50
2006,09,08,16,36,252.10
2006,09,08,16,37,220.90
2006,09,08,16,38,278.90
2006,09,08,16,39,304.60
2006,09,08,16,40,290.30
2006,09,08,16,41,249.40
2006,09,08,16,42,251.20
2006,09,08,16,43,182.30
2006,09,08,16,44,209.50
2006,09,08,16,45,223.90
2006,09,08,16,46,221.00
2006,09,08,16,47,170.20
2006,09,08,16,48,163.20
2006,09,08,16,49,179.00
2006,09,08,16,50,169.50
2006,09,08,16,51,160.00
2006,09,08,16,52,169.50
2006,09,08,16,53,194.80
2006,09,08,16,54,216.00
2006,09,08,16,55,203.10
2006,09,08,16,56,193.20
2006,09,08,16,57,189.80
2006,09,08,16,58,190.60
2006,09,08,16,59,192.70
2006,09,08,17,00,204.50
2006,09,08,17,01,232.40
2006,09,08,17,02,176.40
2006,09,08,17,03,150.10
2006,09,08,17,04,141.40
2006,09,08,17,05,145.10
2006,09,08,17,06,147.80
2006,09,08,17,07,137.40
2006,09,08,17,08,137.30
2006,09,08,17,09,146.00
2006,09,08,17,10,149.00
2006,09,08,17,11,140.90
2006,09,08,17,12,135.60